Regional Weather Roundup
Issued by NWS

Home | Current Version | Previous Version | Graphics & Text | Print | Product List | Glossary On
Versions: 1 2 3 4 5 6 7 8 9 10 11 12 13 14 15 16 17 18 19 20 21 22 23 24 25 26 27 28 29 30 31 32 33 34 35 36 37 38 39 40 41 42 43 44 45 46 47 48 49 50
000
ASUS43 KIND 172059
RWRIN

WEATHER ROUNDUP FOR INDIANA
NATIONAL WEATHER SERVICE INDIANAPOLIS IN
400 PM EST WED JAN 17 2018

NOTE: "FAIR" INDICATES FEW OR NO CLOUDS BELOW 12,000 FEET WITH NO
SIGNIFICANT WEATHER AND/OR OBSTRUCTIONS TO VISIBILITY.

* - STATION DOES NOT REPORT WEATHER SUCH AS PRECIPITATION OR FOG.

+ - STATION NOT QUALITY CONTROLLED BY THE NATIONAL WEATHER SERVICE.
    USE DATA WITH CAUTION...ESPECIALLY DEWPOINT AND RELATIVE
    HUMIDITY OBSERVATIONS.

INZ001>003-010>013-019-020-172200-
NORTHWEST INDIANA

CITY           SKY/WX    TMP DP  RH WIND       PRES   REMARKS
GARY /AIRPORT/ MOSUNNY   21   9  58 SW14      30.45F WCI   8
KNOX *+        FAIR      19  12  73 SW7       30.45F WCI  10
MICHIGAN CITY+ FAIR      23  10  58 SW12      30.43F WCI  12
MONTICELLO +   FAIR      13   7  76 SW9       30.50S WCI   1

$$

LMZ046-743>745-172200-
SOUTHERN LAKE MICHIGAN

STATION/POSITION TIME  TEMP    WIND        PRES    WAVE
                       AIR SEA DIR/SP/G            HT
                 (UTC) (F)     (DEG/KT/KT) (MB)    (FT)
BURNS HARBOR     2040   21     250/ 17/ 20 1030.8F
MICHIGAN CITY    2030   21     220/ 19/ 22   N/A

$$

INZ004-005-014>016-021>024-172200-
NORTH CENTRAL INDIANA

CITY           SKY/WX    TMP DP  RH WIND       PRES   REMARKS
ELKHART        FAIR      21   9  58 W12       30.40F WCI   9
GOSHEN         FAIR      19   9  65 SW17G24   30.41F WCI   4
PERU/GRISSOM   FAIR      16  11  80 W12       30.47S WCI   3
SOUTH BEND     FAIR      17   8  67 SW14      30.41F WCI   3

$$

INZ006>009-017-018-025>027-172200-
NORTHEAST INDIANA

CITY           SKY/WX    TMP DP  RH WIND       PRES   REMARKS
FORT WAYNE     FAIR      19  10  68 W15       30.45R WCI   5
KENDALLVILLE + FAIR      19  10  66 W14G20    30.39F WCI   6

$$

INZ028-029-035-036-043>045-051>053-172200-
WEST CENTRAL INDIANA

CITY           SKY/WX    TMP DP  RH WIND       PRES   REMARKS
GREENCASTLE +  FAIR      19   9  63 CALM      30.52F
LAFAYETTE      FAIR      16   8  71 SW9       30.52S WCI   4
TERRE HAUTE    FAIR      16   6  65 W8        30.57F WCI   5

$$

INZ030>032-037>040-046>048-054>057-064-065-172200-
CENTRAL INDIANA

CITY           SKY/WX    TMP DP  RH WIND       PRES   REMARKS
ANDERSON       SUNNY     19  12  73 NW12      30.47  WCI   7
GREENWOOD *+   FAIR      20   9  61 W10       30.52S WCI   9
INDIANAPOLIS   FAIR      18   9  68 SW10      30.51F WCI   6
-EAGLE CREEK   FAIR      19   9  65 W8        30.50F WCI   9
MT COMFORT *+  FAIR      19  12  73 SW8       30.50S WCI   9
SHELBYVILLE    FAIR      17   8  67 SW7       30.51F WCI   8

$$

INZ033-034-041-042-049-050-058-059-172200-
EAST CENTRAL INDIANA

CITY           SKY/WX    TMP DP  RH WIND       PRES   REMARKS
MUNCIE         FAIR      19   9  65 W13       30.47F WCI   6
RICHMOND +     FAIR      16  10  79 W7        30.47S WCI   6

$$

INZ060-061-067>069-081>083-085>088-172200-
SOUTHWEST INDIANA

CITY           SKY/WX    TMP DP  RH WIND       PRES   REMARKS
EVANSVILLE     FAIR      16   7  67 SW7       30.64S WCI   6
HUNTINGBURG +  FAIR      20  10  65 SW8       30.61S WCI  10

$$

INZ062-063-066-070>080-084-089>092-172200-
SOUTH CENTRAL AND SOUTHEAST INDIANA

CITY           SKY/WX    TMP DP  RH WIND       PRES   REMARKS
BLOOMINGTON    FAIR      17   7  64 W7        30.53F WCI   8
FRENCH LICK *+ FAIR      18   5  57 SW7       30.57S WCI   8
MADISON *+     FAIR      19  10  68 SW3       30.56F
SEYMOUR +      FAIR      21   9  58 SW9       30.56S WCI  11

$$





USA.gov is the U.S. government's official web portal to all federal, state and local government web resources and services.